[[{"header":{"parameterUnit":"m.s-1","parameterCategory":1,"la1":30.2991,"la2":30.254,"lo1":-89.0895,"lo2":-89.0444,"dy":0.0017,"dx":0.0017,"nx":28,"ny":28,"refTime":"2025-06-19T21:00:00:Z","depth":0,"parameterNumber":2,"parameterNumberName":"U-component_of_WINDS"},"data":[0,0,0,0,0,0,0,0,0,0,0,0,0,0,0,0,0,0,0,0,0,0,0,0,0,0,0,0,0,0,0,0,0,0,0,0,0,0,0,0,0,0,0,0,0,0,0,0,0,0,0,0,0,0,0,0,0,0,2.2503,2.2503,0,2.2503,2.2503,2.2503,2.2451,2.245,2.2448,2.2447,2.2448,2.245,2.2451,0,0,0,0,0,0,0,0,0,0,0,0,0,2.2461,2.2462,2.2503,2.2503,2.2503,2.2503,2.2503,2.2503,2.2451,2.245,2.2448,2.2446,2.2448,2.2449,2.2451,0,0,0,0,0,0,0,0,0,0,0,0,0,2.2472,2.2462,2.2503,2.2477,2.2475,2.2503,2.2503,2.2503,2.2452,2.2449,2.2447,2.2445,2.2447,2.2449,2.2451,2.2505,0,0,2.2457,2.2458,0,0,0,0,0,0,0,0,2.2471,2.2473,2.2481,2.2479,2.2476,2.2475,2.2489,2.2504,2.2452,2.246,2.2447,2.2444,2.2459,2.246,2.2464,2.2505,2.2505,2.2457,2.2459,2.2459,2.246,0,0,0,0,0,0,0,2.247,2.2473,2.2503,2.2481,2.2478,2.2466,2.2466,2.2491,2.2471,2.2459,2.2456,2.2456,2.2457,2.2463,2.2464,2.2505,2.2457,2.2459,2.246,2.2461,2.2593,2.2595,0,0,0,0,0,0,2.2473,2.2473,2.2503,2.2503,2.2468,2.2469,2.2468,2.2477,2.2471,2.2468,2.2458,2.2454,2.246,2.2462,2.2464,2.2528,2.2459,2.2461,2.2462,2.259,2.2593,2.2596,0,0,0,0,0,0,2.2472,2.2476,2.2503,2.2487,2.2489,2.2472,2.2483,2.2478,2.2484,2.247,2.2466,2.2467,2.2459,2.2461,2.2496,2.2527,2.2462,2.2464,2.2588,2.2591,2.2594,2.2656,0,0,0,0,0,0,2.2471,2.2476,2.2495,2.2488,2.249,2.2534,2.2484,2.248,2.2487,2.2482,2.2477,2.2474,2.2457,2.2493,2.2498,2.2529,2.2466,2.2585,2.2589,2.2593,2.2651,2.2661,2.267,0,0,0,0,0,2.247,2.2512,2.2496,2.25,2.2514,2.2536,2.2537,2.2516,2.249,2.251,2.2501,2.2475,2.2523,2.2497,2.2502,2.2534,2.2583,2.2588,2.2593,2.2647,2.2659,2.2669,0,0,0,0,0,0,2.2523,2.251,2.2493,2.2534,2.2536,2.2527,2.2551,2.2529,2.2539,2.2534,2.2508,2.2507,2.2547,2.2544,2.2515,2.2587,2.2548,2.2555,2.2588,2.2599,2.2608,2.2609,2.2467,0,0,0,0,0,2.254,2.2558,2.2546,2.2583,2.2586,2.2568,2.2577,2.2561,2.2562,2.2563,2.2557,2.256,2.2576,2.2587,2.2601,2.265,2.265,2.2675,2.2685,2.2692,2.2698,2.2727,2.2739,2.2613,2.2613,2.2612,0,0,2.2574,2.257,2.2582,2.2594,2.2594,2.2615,2.2569,2.2592,2.2608,2.2567,2.2599,2.2595,2.2597,2.264,2.2659,2.2639,2.2733,2.2699,2.2705,2.2707,2.2733,2.2745,2.2756,2.2616,2.2615,2.2615,0,0,2.2648,2.2645,2.2677,2.2679,2.268,2.2668,2.2677,2.2671,2.2667,2.2699,2.267,2.2688,2.2716,2.2719,2.2725,2.2803,2.278,2.2809,2.2858,2.2886,2.2896,2.2904,2.2934,2.2945,2.2815,2.2815,2.2815,0,2.2691,2.272,2.2697,2.2722,2.273,2.2694,2.2727,2.273,2.2736,2.2742,2.272,2.2756,2.2754,2.2799,2.2818,2.2823,2.2833,2.2809,2.2896,2.2905,2.2912,2.2941,2.2952,2.2818,2.2818,2.2818,2.2817,0,2.2773,2.2794,2.282,2.2828,2.2837,2.2867,2.285,2.2863,2.2847,2.2839,2.2874,2.2871,2.2885,2.2895,2.2878,2.2938,2.2926,2.29,2.2861,2.2928,2.2955,2.2965,2.2824,2.2822,2.2821,2.282,0,0,2.2879,2.2875,2.2885,2.2889,2.2889,2.2905,2.2934,2.2948,2.2961,2.2967,2.2992,2.3018,2.2995,2.3002,2.2986,2.301,2.3076,2.2982,2.2982,2.3001,2.3144,2.3164,2.3177,2.306,2.3062,2.3064,2.3144,0,2.2952,2.3,2.2982,2.3033,2.3053,2.3021,2.3047,2.3051,2.3045,2.3062,2.3055,2.3075,2.3042,2.3046,2.3069,2.3063,2.3104,2.3057,2.3085,2.3086,2.3086,2.319,2.3211,2.3286,2.3154,2.3156,2.3157,0,2.3042,2.3053,2.3106,2.3105,2.3113,2.3136,2.3149,2.3166,2.317,2.3164,2.3173,2.3153,2.3184,2.3144,2.3187,2.3155,2.3166,2.3165,2.3168,2.317,2.3126,2.3197,2.331,2.3322,2.3173,2.3171,2.317,0,2.3117,2.3144,2.318,2.3184,2.3184,2.3201,2.3202,2.3204,2.3215,2.3227,2.3234,2.3249,2.3257,2.327,2.3256,2.3228,2.3302,2.326,2.3299,2.33,2.3316,2.3315,2.3434,2.3321,2.3321,2.3321,2.3321,0,2.32,2.3235,2.3214,2.3236,2.3275,2.3254,2.3293,2.329,2.3293,2.3315,2.3288,2.331,2.3289,2.331,2.3298,2.3337,2.3341,2.3338,2.3335,2.3341,2.3342,2.3348,2.3343,2.3324,2.3323,2.3323,2.3322,0,2.329,2.3277,2.3315,2.3311,2.3312,2.334,2.3338,2.3359,2.3352,2.3381,2.3387,2.3376,2.3399,2.3385,2.3409,2.3401,2.3452,2.3441,2.3451,2.3448,2.3488,2.3485,2.3616,2.3633,2.3508,2.3509,2.351,0,2.3344,2.337,2.337,2.3384,2.3386,2.3407,2.3419,2.34,2.3413,2.3422,2.3443,2.3464,2.3479,2.3518,2.3513,2.3531,2.3521,2.3566,2.3524,2.353,2.3524,2.3523,2.3527,2.3575,2.3576,2.3577,2.3578,0,2.3443,2.3437,2.3453,2.3469,2.3484,2.3495,2.3504,2.3517,2.3499,2.3515,2.3539,2.3551,2.3576,2.3598,2.3614,2.3616,2.3595,2.3592,2.3602,2.3609,2.3614,2.3614,2.3475,2.3589,2.3588,2.3587,2.3586,2.3586,2.3518,2.3541,2.3545,2.3566,2.3571,2.3581,2.3602,2.3598,2.3617,2.3636,2.3624,2.3653,2.3659,2.3679,2.3684,2.3707,2.3689,2.3703,2.3707,2.3712,2.3718,2.361,2.371,2.3709,2.3709,2.3709,2.3709,0,2.3618,2.3619,2.3639,2.3653,2.367,2.3649,2.3659,2.3675,2.37,2.3708,2.3724,2.3753,2.3775,2.3772,2.3792,2.3811,2.3803,2.3818,2.3816,2.3818,2.3732,2.3722,2.3825,2.3825,2.3824,2.3824,2.3824,2.3824,2.3671,2.3709,2.3703,2.3745,2.3746,2.3774,2.3782,2.3792,2.3798,2.3831,2.3849,2.3847,2.3852,2.3873,2.3892,2.3891,2.3901,2.392,2.3915,2.3835,2.3823,2.3813,2.3803,2.3921,2.3922,2.4,2.4,2.4001]},{"header":{"parameterUnit":"m.s-1","parameterCategory":1,"la1":30.2991,"la2":30.254,"lo1":-89.0895,"lo2":-89.0444,"dy":0.0017,"dx":0.0017,"nx":28,"ny":28,"refTime":"2025-06-19T21:00:00:Z","depth":0,"parameterNumber":3,"parameterNumberName":"V-component_of_WINDS"},"data":[0,0,0,0,0,0,0,0,0,0,0,0,0,0,0,0,0,0,0,0,0,0,0,0,0,0,0,0,0,0,0,0,0,0,0,0,0,0,0,0,0,0,0,0,0,0,0,0,0,0,0,0,0,0,0,0,0,0,-1.1036,-1.1036,0,-1.1073,-1.1074,-1.1074,-1.1095,-1.1095,-1.1096,-1.1096,-1.1134,-1.1135,-1.1136,0,0,0,0,0,0,0,0,0,0,0,0,0,-1.0984,-1.0985,-1.1036,-1.1036,-1.1037,-1.1073,-1.1074,-1.1074,-1.1095,-1.1095,-1.1096,-1.1096,-1.1133,-1.1135,-1.1136,0,0,0,0,0,0,0,0,0,0,0,0,0,-1.1012,-1.0985,-1.1036,-1.1052,-1.1054,-1.1073,-1.1074,-1.1074,-1.1095,-1.1095,-1.1096,-1.1096,-1.1133,-1.1134,-1.1136,-1.1143,0,0,-1.114,-1.1141,0,0,0,0,0,0,0,0,-1.1011,-1.1014,-1.1049,-1.1051,-1.1053,-1.108,-1.1069,-1.1097,-1.1095,-1.1079,-1.1096,-1.1096,-1.1116,-1.1119,-1.1125,-1.1144,-1.1146,-1.114,-1.1141,-1.1142,-1.1142,0,0,0,0,0,0,0,-1.1009,-1.1013,-1.1051,-1.1049,-1.1052,-1.1057,-1.1062,-1.1075,-1.1097,-1.1081,-1.1082,-1.1087,-1.1117,-1.1124,-1.1126,-1.1146,-1.114,-1.1142,-1.1142,-1.1143,-1.1175,-1.1175,0,0,0,0,0,0,-1.1004,-1.1011,-1.1049,-1.1052,-1.1032,-1.1058,-1.1063,-1.1071,-1.1096,-1.11,-1.1087,-1.1087,-1.1121,-1.1125,-1.1128,-1.1139,-1.1142,-1.1143,-1.1144,-1.1175,-1.1175,-1.1175,0,0,0,0,0,0,-1.1003,-1.1007,-1.1048,-1.1032,-1.1037,-1.1059,-1.1068,-1.1072,-1.1079,-1.1101,-1.1105,-1.109,-1.1122,-1.1126,-1.1139,-1.114,-1.1144,-1.1145,-1.1175,-1.1175,-1.1175,-1.1159,0,0,0,0,0,0,-1.1001,-1.1007,-1.1009,-1.1032,-1.1038,-1.1058,-1.1068,-1.1072,-1.1081,-1.1083,-1.1105,-1.1109,-1.1122,-1.1137,-1.1141,-1.1142,-1.1146,-1.1175,-1.1175,-1.1175,-1.116,-1.1159,-1.1158,0,0,0,0,0,-1.0999,-1.1003,-1.1009,-1.1013,-1.1042,-1.1058,-1.1062,-1.1077,-1.1081,-1.1084,-1.1099,-1.1108,-1.114,-1.1138,-1.1142,-1.1144,-1.1175,-1.1175,-1.1175,-1.116,-1.1159,-1.1158,0,0,0,0,0,0,-1.0979,-1.1006,-1.1013,-1.1024,-1.1039,-1.1062,-1.1066,-1.1075,-1.1089,-1.109,-1.1109,-1.1114,-1.1126,-1.1136,-1.1134,-1.1153,-1.1158,-1.1159,-1.1146,-1.1145,-1.1144,-1.1141,-1.1147,0,0,0,0,0,-1.0975,-1.0987,-1.101,-1.1017,-1.1024,-1.1044,-1.1051,-1.1062,-1.1078,-1.1085,-1.11,-1.1115,-1.1129,-1.1137,-1.1151,-1.1162,-1.1168,-1.1165,-1.1164,-1.1163,-1.1164,-1.1172,-1.1172,-1.1175,-1.1175,-1.1175,0,0,-1.0969,-1.0985,-1.0991,-1.1013,-1.1026,-1.1038,-1.1049,-1.106,-1.1069,-1.1086,-1.11,-1.1112,-1.1131,-1.1143,-1.1149,-1.1153,-1.1165,-1.1163,-1.1163,-1.1164,-1.1172,-1.1172,-1.1172,-1.1175,-1.1175,-1.1175,0,0,-1.0963,-1.0975,-1.0984,-1.0997,-1.1016,-1.103,-1.1032,-1.1054,-1.1063,-1.1077,-1.1091,-1.1102,-1.1125,-1.1138,-1.1147,-1.1149,-1.1158,-1.1153,-1.1147,-1.1155,-1.1155,-1.1155,-1.1157,-1.1157,-1.1153,-1.1153,-1.1153,0,-1.0952,-1.097,-1.0987,-1.0998,-1.1008,-1.1025,-1.1034,-1.1046,-1.1069,-1.1076,-1.1079,-1.1109,-1.1123,-1.1139,-1.114,-1.1147,-1.115,-1.115,-1.1154,-1.1154,-1.1154,-1.1156,-1.1156,-1.1152,-1.1152,-1.1152,-1.1153,0,-1.0956,-1.0968,-1.0973,-1.0995,-1.1006,-1.1016,-1.1035,-1.1044,-1.1055,-1.1068,-1.1083,-1.11,-1.1119,-1.1123,-1.1133,-1.1142,-1.1144,-1.115,-1.1156,-1.1153,-1.1155,-1.1155,-1.1151,-1.1151,-1.1152,-1.1152,0,0,-1.0937,-1.097,-1.0971,-1.0983,-1.1006,-1.1017,-1.1028,-1.1046,-1.1054,-1.107,-1.1081,-1.11,-1.1107,-1.1118,-1.113,-1.1137,-1.1138,-1.1143,-1.1143,-1.1142,-1.1151,-1.1146,-1.1147,-1.1145,-1.1145,-1.1145,-1.115,0,-1.0935,-1.0956,-1.0973,-1.0988,-1.1001,-1.1018,-1.1028,-1.1044,-1.1057,-1.107,-1.1085,-1.1099,-1.1106,-1.1113,-1.1121,-1.1137,-1.1141,-1.1136,-1.1156,-1.1157,-1.1151,-1.1148,-1.1142,-1.1146,-1.115,-1.1151,-1.1151,0,-1.0935,-1.0951,-1.0967,-1.0992,-1.0998,-1.1007,-1.1026,-1.1038,-1.1057,-1.1066,-1.1079,-1.1092,-1.1106,-1.1111,-1.1131,-1.1128,-1.1137,-1.1146,-1.1147,-1.1149,-1.1154,-1.1151,-1.1147,-1.1148,-1.1152,-1.1152,-1.1152,0,-1.092,-1.0946,-1.096,-1.0969,-1.0997,-1.1003,-1.1015,-1.1035,-1.1045,-1.1062,-1.107,-1.1088,-1.1098,-1.1112,-1.113,-1.1131,-1.1149,-1.1154,-1.1157,-1.1157,-1.116,-1.116,-1.1158,-1.1165,-1.1165,-1.1165,-1.1165,0,-1.0916,-1.0926,-1.0954,-1.0963,-1.0975,-1.0994,-1.1006,-1.102,-1.1037,-1.1049,-1.1065,-1.1076,-1.1099,-1.1113,-1.1127,-1.1142,-1.1146,-1.1155,-1.1159,-1.1154,-1.1153,-1.116,-1.1161,-1.1165,-1.1165,-1.1165,-1.1165,0,-1.0902,-1.0921,-1.0937,-1.0964,-1.0971,-1.0978,-1.1001,-1.1011,-1.1025,-1.1041,-1.1045,-1.1068,-1.1086,-1.1105,-1.1129,-1.1139,-1.1154,-1.1158,-1.1147,-1.1149,-1.1152,-1.1152,-1.1156,-1.1158,-1.1162,-1.1162,-1.1162,0,-1.0898,-1.0907,-1.0934,-1.0944,-1.0956,-1.097,-1.0982,-1.1002,-1.1013,-1.1037,-1.1044,-1.1063,-1.1079,-1.1107,-1.1126,-1.1145,-1.1151,-1.1151,-1.1154,-1.1149,-1.1152,-1.1152,-1.1153,-1.115,-1.115,-1.115,-1.115,0,-1.089,-1.09,-1.0916,-1.0935,-1.0949,-1.0965,-1.0982,-1.0989,-1.1012,-1.1024,-1.1043,-1.1056,-1.1081,-1.11,-1.1122,-1.1135,-1.1147,-1.1149,-1.1151,-1.1146,-1.114,-1.1144,-1.1146,-1.1148,-1.1149,-1.1149,-1.1149,-1.1149,-1.0882,-1.0891,-1.0912,-1.093,-1.0945,-1.0961,-1.0972,-1.0988,-1.1004,-1.1027,-1.1038,-1.1057,-1.1078,-1.1108,-1.1121,-1.1137,-1.114,-1.1143,-1.1143,-1.1144,-1.1143,-1.1137,-1.1141,-1.1141,-1.1141,-1.1141,-1.1141,0,-1.0876,-1.0891,-1.0907,-1.0931,-1.0945,-1.0955,-1.0975,-1.0986,-1.1003,-1.1021,-1.1038,-1.106,-1.1079,-1.1101,-1.1121,-1.113,-1.1136,-1.1135,-1.1135,-1.1138,-1.1138,-1.1135,-1.113,-1.113,-1.113,-1.113,-1.113,-1.113,-1.0874,-1.089,-1.0903,-1.0927,-1.0942,-1.0961,-1.0972,-1.0987,-1.1002,-1.1026,-1.1043,-1.1057,-1.1077,-1.11,-1.1118,-1.1124,-1.1131,-1.1129,-1.1136,-1.1137,-1.1137,-1.1138,-1.1135,-1.113,-1.113,-1.1135,-1.1135,-1.1135]}]]